Weather History for Baudette, MN

Change the Weather History Date:

Tuesday, February 5, 2013

  Actual Average Record
Temperature  
Mean Temperature 0 °F -  
Max Temperature 8 °F 17 °F 45 °F (1990)
Min Temperature -7 °F -5 °F -40 °F (1936)
Degree Days  
Heating Degree Days 64    
Moisture  
Dew Point -2 °F    
Average Humidity 79    
Maximum Humidity 92    
Minimum Humidity 63    
Precipitation  
Precipitation 0.01 in - - ()
Sea Level Pressure  
Sea Level Pressure 29.90 in    
Wind  
Wind Speed 6 mph (North)    
Max Wind Speed 12 mph    
Max Gust Speed -    
Visibility 9 miles    
Events Snow    
Averages and records for this station are not official NWS values.
T = Trace of Precipitation, MM = Missing Value Source: NWS Daily Summary

Daily Weather History Graph

Daily Weather History Graph

Search for Another Location

Airport:

Trip Planner

Search our weather history database for the weather conditions in past years. The results will help you decide how hot, cold, wet, or windy it might be!

Date:

Astronomy

Feb. 05, 2013 Rise Set
Actual Time 7:42 AM CST 5:23 PM CST
Civil Twilight 7:08 AM CST 5:57 PM CST
Nautical Twilight 6:31 AM CST 6:34 PM CST
Astronomical Twilight 5:54 AM CST 7:11 PM CST
Moon 3:34 AM CST (2/5) 12:31 PM CST (2/5)
Length of Visible Light 10h 48m
Length of Day
9h 41m
Waning Crescent, 26% of the Moon is Illuminated
Feb 5
Waning Crescent
Feb 10
New
Feb 17
First Quarter
Feb 25
Full
Mar 4
Last Quarter

Hourly Weather History & Observations

Time (CST) Temp. Windchill Dew Point Humidity Pressure Visibility Wind Dir Wind Speed Gust Speed Precip Events Conditions
12:27 AM 8.6 °F -2.6 °F 3.2 °F 79% 29.57 in 2.0 mi East 6.9 mph - 0.01 in Snow Light Snow
12:53 AM 8.1 °F -3.2 °F 3.9 °F 83% 29.65 in 3.0 mi East 6.9 mph - 0.01 in Snow Light Snow
1:24 AM 6.8 °F -5.9 °F 3.2 °F 85% 29.58 in 2.5 mi East 8.1 mph - 0.00 in Snow Light Snow
1:41 AM 6.8 °F -3.5 °F 3.2 °F 85% 29.59 in 3.0 mi East 5.8 mph - 0.00 in Snow Light Snow
1:53 AM 6.1 °F -2.8 °F 1.9 °F 83% 29.68 in 5.0 mi ENE 4.6 mph - 0.00 in Snow Light Snow
2:53 AM 1.9 °F -7.6 °F -0.0 °F 91% 29.70 in 10.0 mi North 4.6 mph - 0.00 in   Partly Cloudy
3:53 AM 3.0 °F -9.3 °F -0.0 °F 87% 29.73 in 10.0 mi North 6.9 mph - N/A   Overcast
4:04 AM 1.4 °F -12.5 °F -0.4 °F 92% 29.65 in 10.0 mi North 8.1 mph - N/A   Mostly Cloudy
4:13 AM 1.4 °F -12.5 °F -0.4 °F 92% 29.66 in 10.0 mi North 8.1 mph - N/A   Mostly Cloudy
4:53 AM -0.0 °F -14.2 °F -2.9 °F 88% 29.78 in 10.0 mi North 8.1 mph - N/A   Clear
5:53 AM -2.9 °F -15.0 °F -5.1 °F 90% 29.83 in 10.0 mi NNW 5.8 mph - N/A   Clear
6:53 AM -5.1 °F -19.1 °F -8.0 °F 87% 29.87 in 10.0 mi NNW 6.9 mph - N/A   Clear
7:53 AM -7.1 °F -22.8 °F -9.9 °F 87% 29.91 in 10.0 mi NNW 8.1 mph - N/A   Clear
8:53 AM -5.8 °F -22.4 °F -9.4 °F 84% 29.86 in 10.0 mi NNW 9.2 mph - N/A   Clear
9:53 AM -4.0 °F -20.2 °F -7.1 °F 87% 29.99 in 10.0 mi NW 9.2 mph - N/A   Clear
10:53 AM -0.0 °F -14.2 °F -5.1 °F 79% 30.02 in 10.0 mi NW 8.1 mph - N/A   Clear
11:53 AM -0.0 °F -15.3 °F -5.1 °F 79% 30.04 in 10.0 mi NW 9.2 mph - N/A   Clear
12:53 PM 3.0 °F -4.4 °F -2.9 °F 76% 30.03 in 10.0 mi NNW 3.5 mph - N/A   Partly Cloudy
1:53 PM 5.0 °F -10.8 °F -4.0 °F 66% 30.05 in 10.0 mi WNW 11.5 mph - N/A   Clear
2:53 PM 6.1 °F -6.8 °F -2.9 °F 67% 30.06 in 10.0 mi NNW 8.1 mph - N/A   Overcast
3:53 PM 6.1 °F -0.9 °F -4.0 °F 63% 30.07 in 10.0 mi NNW 3.5 mph - N/A   Overcast
4:53 PM 6.1 °F - -4.0 °F 63% 30.07 in 10.0 mi Calm Calm - N/A   Overcast
5:53 PM 6.1 °F - -2.9 °F 67% 30.08 in 10.0 mi Calm Calm - N/A   Overcast
6:53 PM 6.1 °F - -2.9 °F 67% 30.07 in 10.0 mi Calm Calm - N/A   Overcast
7:53 PM 5.0 °F - -2.9 °F 70% 30.09 in 10.0 mi Calm Calm - N/A   Overcast
8:53 PM 3.0 °F - -2.0 °F 80% 30.10 in 10.0 mi Calm Calm - N/A   Overcast
9:53 PM 5.0 °F - -0.9 °F 76% 30.09 in 10.0 mi Calm Calm - N/A   Overcast
10:53 PM 6.1 °F - -0.0 °F 76% 30.10 in 10.0 mi Calm Calm - N/A   Overcast
11:53 PM 6.1 °F - -0.9 °F 73% 30.09 in 10.0 mi Calm Calm - N/A   Overcast